TimeEST,TemperatureF,Dew PointF,Humidity,Sea Level PressureIn,VisibilityMPH,Wind Direction,Wind SpeedMPH,Gust SpeedMPH,PrecipitationIn,Events,Conditions,WindDirDegrees,DateUTC
12:55 AM,28.4,26.6,93,30.04,10.0,Calm,Calm,-,N/A,,Clear,0,2013-02-15 05:55:00
1:15 AM,28.4,26.6,93,30.05,10.0,Calm,Calm,-,N/A,,Scattered Clouds,0,2013-02-15 06:15:00
1:35 AM,28.4,26.6,93,30.05,10.0,Calm,Calm,-,N/A,,Mostly Cloudy,0,2013-02-15 06:35:00
1:55 AM,30.2,26.6,86,30.05,10.0,Calm,Calm,-,N/A,,Scattered Clouds,0,2013-02-15 06:55:00
2:15 AM,30.2,26.6,86,30.05,10.0,Calm,Calm,-,N/A,,Scattered Clouds,0,2013-02-15 07:15:00
2:35 AM,30.2,26.6,86,30.04,10.0,ENE,3.5,-,N/A,,Mostly Cloudy,60,2013-02-15 07:35:00
2:55 AM,30.2,28.4,93,30.04,10.0,Variable,3.5,-,N/A,,Scattered Clouds,0,2013-02-15 07:55:00
3:15 AM,30.2,26.6,86,30.04,10.0,Calm,Calm,-,N/A,,Clear,0,2013-02-15 08:15:00
3:35 AM,30.2,26.6,86,30.03,10.0,NE,3.5,-,N/A,,Partly Cloudy,50,2013-02-15 08:35:00
3:55 AM,28.4,26.6,93,30.03,10.0,Calm,Calm,-,N/A,,Scattered Clouds,0,2013-02-15 08:55:00
4:15 AM,30.2,28.4,93,30.03,10.0,Calm,Calm,-,N/A,,Partly Cloudy,0,2013-02-15 09:15:00
4:35 AM,28.4,26.6,93,30.03,10.0,Calm,Calm,-,N/A,,Clear,0,2013-02-15 09:35:00
4:55 AM,28.4,26.6,93,30.03,10.0,Calm,Calm,-,N/A,,Clear,0,2013-02-15 09:55:00
5:35 AM,28.4,26.6,93,30.03,10.0,NE,3.5,-,N/A,,Clear,50,2013-02-15 10:35:00
5:55 AM,28.4,26.6,93,30.03,10.0,Calm,Calm,-,N/A,,Clear,0,2013-02-15 10:55:00
6:15 AM,28.4,26.6,93,30.03,10.0,Calm,Calm,-,N/A,,Clear,0,2013-02-15 11:15:00
6:35 AM,28.4,26.6,93,30.04,10.0,NE,3.5,-,N/A,,Clear,50,2013-02-15 11:35:00
7:15 AM,26.6,26.6,100,30.05,10.0,Calm,Calm,-,N/A,,Clear,0,2013-02-15 12:15:00
7:35 AM,28.4,26.6,93,30.06,10.0,Calm,Calm,-,N/A,,Clear,0,2013-02-15 12:35:00
7:55 AM,28.4,28.4,100,30.06,10.0,East,3.5,-,N/A,,Clear,80,2013-02-15 12:55:00
8:15 AM,30.2,28.4,93,30.07,10.0,ENE,3.5,-,N/A,,Clear,70,2013-02-15 13:15:00
8:35 AM,33.8,28.4,81,30.08,10.0,Calm,Calm,-,N/A,,Mostly Cloudy,0,2013-02-15 13:35:00
8:55 AM,33.8,30.2,87,30.07,10.0,East,3.5,-,N/A,,Mostly Cloudy,90,2013-02-15 13:55:00
9:15 AM,37.4,30.2,75,30.07,10.0,Calm,Calm,-,N/A,,Partly Cloudy,0,2013-02-15 14:15:00
9:35 AM,37.4,30.2,75,30.07,10.0,East,3.5,-,N/A,,Clear,90,2013-02-15 14:35:00
9:55 AM,39.2,32.0,75,30.06,10.0,Calm,Calm,-,N/A,,Clear,0,2013-02-15 14:55:00
10:15 AM,42.8,33.8,70,30.06,10.0,Calm,Calm,-,N/A,,Clear,0,2013-02-15 15:15:00
10:35 AM,44.6,32.0,61,30.05,10.0,SSW,3.5,-,N/A,,Clear,210,2013-02-15 15:35:00
10:55 AM,48.2,33.8,58,30.04,10.0,WSW,5.8,-,N/A,,Clear,240,2013-02-15 15:55:00
11:15 AM,50.0,33.8,54,30.04,10.0,SW,5.8,-,N/A,,Clear,230,2013-02-15 16:15:00
11:35 AM,51.8,32.0,47,30.03,10.0,West,6.9,-,N/A,,Clear,270,2013-02-15 16:35:00
11:55 AM,53.6,33.8,47,30.02,10.0,WNW,10.4,-,N/A,,Clear,290,2013-02-15 16:55:00
12:15 PM,53.6,32.0,44,30.01,10.0,West,11.5,-,N/A,,Clear,280,2013-02-15 17:15:00
12:55 PM,55.4,30.2,38,29.99,10.0,WSW,13.8,-,N/A,,Clear,240,2013-02-15 17:55:00
1:15 PM,51.8,30.2,44,29.98,10.0,West,12.7,-,N/A,,Clear,270,2013-02-15 18:15:00
1:35 PM,53.6,30.2,41,29.97,10.0,WSW,11.5,-,N/A,,Mostly Cloudy,240,2013-02-15 18:35:00
1:55 PM,53.6,30.2,41,29.96,10.0,WSW,12.7,-,N/A,,Scattered Clouds,240,2013-02-15 18:55:00
2:15 PM,53.6,30.2,41,29.96,10.0,WSW,10.4,-,N/A,,Mostly Cloudy,250,2013-02-15 19:15:00
2:35 PM,53.6,30.2,41,29.95,10.0,West,13.8,-,N/A,,Overcast,280,2013-02-15 19:35:00
2:55 PM,51.8,32.0,47,29.95,10.0,West,10.4,-,N/A,,Overcast,280,2013-02-15 19:55:00
3:15 PM,51.8,30.2,44,29.94,10.0,West,15.0,-,N/A,,Overcast,260,2013-02-15 20:15:00
3:35 PM,51.8,30.2,44,29.94,10.0,WNW,9.2,-,N/A,,Overcast,290,2013-02-15 20:35:00
3:55 PM,48.2,35.6,62,29.95,10.0,NW,16.1,-,N/A,,Overcast,320,2013-02-15 20:55:00
4:15 PM,46.4,35.6,66,29.97,10.0,WNW,15.0,-,N/A,,Mostly Cloudy,300,2013-02-15 21:15:00
4:35 PM,44.6,35.6,71,29.99,10.0,WNW,13.8,-,N/A,,Overcast,300,2013-02-15 21:35:00
4:55 PM,42.8,35.6,76,30.00,10.0,WNW,9.2,-,N/A,Rain,Light Rain,300,2013-02-15 21:55:00
5:15 PM,41.0,35.6,81,30.00,10.0,West,6.9,-,N/A,,Light Drizzle,270,2013-02-15 22:15:00
5:35 PM,41.0,35.6,81,30.01,10.0,West,3.5,-,N/A,Rain,Light Rain,260,2013-02-15 22:35:00
5:55 PM,41.0,35.6,81,30.01,10.0,West,8.1,-,N/A,Rain,Light Rain,280,2013-02-15 22:55:00
6:15 PM,39.2,35.6,87,30.03,10.0,West,9.2,-,N/A,Rain,Light Rain,280,2013-02-15 23:15:00
6:35 PM,39.2,33.8,81,30.03,9.0,WNW,6.9,-,N/A,Rain,Light Rain,290,2013-02-15 23:35:00
6:55 PM,37.4,33.8,87,30.04,10.0,West,9.2,-,N/A,Rain,Light Rain,270,2013-02-15 23:55:00
7:15 PM,37.4,33.8,87,30.05,10.0,West,8.1,-,N/A,Rain,Light Rain,260,2013-02-16 00:15:00
7:35 PM,37.4,33.8,87,30.06,10.0,West,5.8,-,N/A,Rain,Light Rain,260,2013-02-16 00:35:00
7:55 PM,35.6,33.8,93,30.06,9.0,West,6.9,-,N/A,Rain,Light Rain,280,2013-02-16 00:55:00
8:15 PM,35.6,33.8,93,30.06,6.0,WNW,4.6,-,N/A,Rain,Light Rain,290,2013-02-16 01:15:00
8:35 PM,35.6,33.8,93,30.06,10.0,WSW,3.5,-,N/A,Rain,Light Rain,250,2013-02-16 01:35:00
8:55 PM,35.6,32.0,87,30.06,10.0,Calm,Calm,-,N/A,Rain,Light Rain,0,2013-02-16 01:55:00
9:15 PM,35.6,32.0,87,30.06,10.0,SW,6.9,-,N/A,Rain,Light Rain,220,2013-02-16 02:15:00
9:35 PM,33.8,32.0,93,30.06,10.0,SW,5.8,-,N/A,Rain,Light Rain,230,2013-02-16 02:35:00
9:55 PM,33.8,32.0,93,30.07,8.0,Variable,4.6,-,N/A,Rain,Light Rain,0,2013-02-16 02:55:00
10:15 PM,33.8,30.2,87,30.07,9.0,WNW,5.8,-,N/A,Snow,Light Snow,290,2013-02-16 03:15:00
10:35 PM,33.8,30.2,87,30.07,10.0,Calm,Calm,-,N/A,Snow,Light Snow,0,2013-02-16 03:35:00
10:55 PM,33.8,30.2,87,30.07,10.0,SSW,5.8,-,N/A,,Overcast,210,2013-02-16 03:55:00
11:15 PM,33.8,30.2,87,30.05,10.0,SW,8.1,-,N/A,,Overcast,230,2013-02-16 04:15:00
11:35 PM,32.0,30.2,93,30.05,10.0,SW,6.9,-,N/A,,Overcast,220,2013-02-16 04:35:00
11:55 PM,32.0,30.2,93,30.04,10.0,WSW,6.9,-,N/A,,Overcast,240,2013-02-16 04:55:00